Home   Weather   Columbus   Past weeks

Flag for USA Past Weather in Columbus, Georgia, USA — Yesterday and Last 2 Weeks

Now
83 °F

Passing clouds.


Feels Like: 86 °F
Forecast: 69 / 93 °F
Wind: 5 mph from Northwest

Location: Columbus Metropolitan Airport

Current Time: Sep 25, 2016 at 6:32:33 PM

Latest Report: Sep 25, 2016 at 5:51 PM


Visibility: 10 mi

Pressure: 29.96 "Hg

Humidity: 61%

Dew Point: 68 °F

Location of ColumbusLocation

Past Weather in Columbus — Graph

°F

Columbus Temperature Yesterday

Maximum temperature yesterday: 94 °F (at 2:51 PM)
Minimum temperature yesterday: 70 °F (at 6:51 AM)
Average temperature yesterday: 81 °F

High & Low Weather Summary for the Past Weeks

 TemperatureHumidityPressure
High95 °F (Sep 11, 2:51 PM)94% (Sep 12, 9:51 PM)30.14 "Hg (Sep 12, 9:51 PM)
Low70 °F (Sep 12, 4:51 AM)31% (Sep 23, 3:51 PM)29.90 "Hg (Sep 19, 4:51 PM)
Average80 °F65%30.03 "Hg
* Reported Sep 10 4:51 PM — Sep 25 4:51 PM, Columbus, Weather by CustomWeather, © 2016

Note: Actual official high and low records may vary slightly from our data, if they occured in-between our weather recording intervals... More about our weather records

Advertising

Columbus Weather History for the Previous 24 Hours

Scroll right to see more
 ConditionsComfort  
Time TempWeatherWind HumidityBarometerVisibility
4:51 PM
Sun, Sep 25
78 °FPassing clouds.No wind76%29.97 "Hg10 mi
4:03 PM75 °FThunderstorms. Broken clouds.13 mph76%30.00 "Hg2 mi
3:51 PM78 °FHeavy rain. Mostly cloudy.10 mph69%30.01 "Hg1 mi
3:04 PM89 °FThundershowers. Passing clouds.8 mph42%30.00 "Hg10 mi
2:51 PM89 °FPassing clouds.9 mph42%29.99 "Hg10 mi
1:51 PM90 °FScattered clouds.6 mph39%30.01 "Hg10 mi
12:51 PM91 °FPartly sunny.7 mph39%30.03 "Hg10 mi
11:51 AM89 °FSunny.5 mph46%30.04 "Hg10 mi
10:51 AM85 °FSunny.No wind57%30.06 "Hg10 mi
9:51 AM79 °FSunny.No wind67%30.06 "Hg10 mi
8:51 AM73 °FSunny.No wind76%30.06 "Hg10 mi
7:51 AM70 °FSunny.No wind84%30.05 "Hg10 mi
6:51 AM70 °FClear.3 mph84%30.04 "Hg10 mi
5:51 AM72 °FClear.No wind81%30.02 "Hg10 mi
4:51 AM74 °FClear.No wind74%30.01 "Hg10 mi
3:51 AM72 °FClear.3 mph84%30.01 "Hg10 mi
2:51 AM75 °FClear.No wind74%30.01 "Hg10 mi
1:51 AM74 °FClear.No wind82%30.01 "Hg10 mi
12:51 AM75 °FClear.No wind79%30.01 "Hg10 mi
11:51 PM
Sat, Sep 24
77 °FClear.3 mph77%30.01 "Hg10 mi
10:51 PM76 °FClear.No wind85%30.00 "Hg10 mi
9:51 PM78 °FClear.No wind71%30.00 "Hg10 mi
8:51 PM79 °FPassing clouds.No wind72%30.00 "Hg10 mi
7:51 PM81 °FThundershowers. Passing clouds.3 mph65%29.99 "Hg10 mi
6:51 PM86 °FOvercast.12 mph49%29.98 "Hg10 mi
Weather by CustomWeather, © 2016

See weather overviewHow to use our weather pages